Location: Namasale
(1.5000°N, 32.6167°E)
Time: 14:02:41
(UTC+00:00)

USA 215 - Pass Details

Date: 09 April 2020
Orbit: 1098 x 1110 km, 123.0° (Epoch: 01 June)

Event Time Altitude Azimuth Distance (km) Brightness Sun altitude
Exits shadow 17:26:40 - 164° (SSE) 3,169 5.4 -23.5°
Reaches altitude 10° 17:27:16 10° 166° (SSE) 2,962 5.3 -23.6°
Maximum altitude 17:33:16 40° 233° (SW) 1,573 4.3 -25.1°
Drops below altitude 10° 17:39:16 10° 301° (WNW) 2,948 6.4 -26.6°
Sets 17:41:55 0° 308° (NW) 3,903 7.1 -27.2°
